Location: Choisy
(48.7685°N, 2.4187°E)
Time: 08:53:01
(UTC+00:00)

ATLAS 3B R/B - Pass Details

Date: 09 December 2023
Orbit: 947 x 1247 km, 63.8° (Epoch: 10 February)

Event Time Altitude Azimuth Distance (km) Brightness Sun altitude
Exits shadow 05:29:16 25° 312° (NW) 2,194 3.8 -19.0°
Maximum altitude 05:31:45 30° 343° (NNW) 2,014 3.9 -18.6°
Drops below altitude 10° 05:38:21 10° 42° (NE) 3,195 5.5 -17.6°
Sets 05:41:39 0° 53° (NE) 4,183 6.4 -17.1°
